Miscellaneous Local Product
Issued by NWS North Platte, NE

Home | Current Version | Previous Version | Graphics & Text | Print | Product List | Glossary On
Versions: 1 2 3 4 5 6 7 8 9 10 11 12 13 14 15 16 17 18 19 20 21 22 23 24 25 26 27 28 29 30 31 32 33 34 35 36 37 38 39 40 41 42 43 44 45 46 47 48 49 50
804
AXUS43 KLBF 251310
MISLBF


WESTERN AND NORTH CENTRAL NEBRASKA HOURLY WEATHER ROUNDUP
NATIONAL WEATHER SERVICE NORTH PLATTE NE
800 AM CDT WED MAY 25 2016

NOTE: "FAIR" INDICATES FEW OR NO CLOUDS BELOW 12,000 FEET WITH NO
SIGNIFICANT WEATHER AND/OR OBSTRUCTIONS TO VISIBILITY.

NOTE: STATIONS NOT REPORTING VARIABLES SUCH AS SKY/WEATHER OR
PRESSURE ARE PROVIDED BY RAWS AND APRS NETWORKS AND ARE NOT UNDER
NATIONAL WEATHER SERVICE QUALITY CONTROL.

...OBSERVATIONS IN AND NEAR THE EASTERN PANHANDLE OF NEBRASKA...

CITY           SKY/WX    TMP DP  RH WIND       PRES   REMARKS
PINE RIDGE     SUNNY     51  47  86 W7        29.88R
CHADRON        MOSUNNY   49  32  52 SW6       29.89S
ALLIANCE       CLOUDY    50  49  96 W14       29.92R
SIDNEY         FOG       48  48 100 W8        29.96R VSB<1/4
CRESCENT LAKE    N/A     51  51 100 SW10        N/A
BIG SPRINGS      N/A     51  49  93 SW7         N/A
$$

...OBSERVATIONS IN NORTHERN NEBRASKA AND FAR SOUTHERN SOUTH DAKOTA...

CITY           SKY/WX    TMP DP  RH WIND       PRES   REMARKS
WINNER         CLOUDY    60  56  86 W3        29.81R
VALENTINE      MOSUNNY   58  53  84 SW7       29.82F
THEDFORD       MOSUNNY   57  55  92 SE5       29.83F
AINSWORTH      CLOUDY    58  56  96 SW8       29.85S
O`NEILL        CLOUDY    59  58  95 SW9       29.84R
ORD            MOSUNNY   62  57  83 S8        29.82S
BROKEN BOW     SUNNY     60  55  83 SW8       29.88R
BUTTE            N/A     58  56  95 S9          N/A
CHAMBERS         N/A     65  63  93 W3          N/A
EWING            N/A     60  58  93 SW6         N/A
$$

...OBSERVATIONS IN SOUTHWEST NEBRASKA AND FAR NORTHEAST COLORADO...

CITY           SKY/WX    TMP DP  RH WIND       PRES   REMARKS
HOLYOKE        FAIR      59  52  77 W3        29.94R
IMPERIAL       SUNNY     58  52  80 SE5       29.91R
OGALLALA       SUNNY     55  54  94 W6        29.92R
NORTH PLATTE   MOSUNNY   58  55  90 E5        29.88F
MCCOOK         MOSUNNY   62  55  77 SE14G20   29.86F
LEXINGTON      CLOUDY    61  56  81 SE13      29.87S
PAXTON           N/A     54  51  90 E3          N/A
STAPLETON        N/A     57  55  92 CALM        N/A
GOTHENBURG       N/A     59  54  84 CALM        N/A
CALLAWAY         N/A     56  53  91 NW10        N/A
$$

...OBSERVATIONS IN CENTRAL LINCOLN COUNTY AREA...

CITY           SKY/WX    TMP DP  RH WIND       PRES   REMARKS
N.P. AIRPORT   MOSUNNY   58  55  90 E5        29.88F
N.P. DOWNTOWN    N/A     58  56  95 CALM        N/A
N.P. SOUTHEAST   N/A     59  55  88 CALM        N/A
N.P. HILLCREST   N/A     60  56  87 E8          N/A
$$

...SOME OBSERVATIONS FROM AROUND THE REGION...

CITY           SKY/WX    TMP DP  RH WIND       PRES   REMARKS
DENVER         MOSUNNY   51  41  68 CALM      30.00R
LARAMIE        SUNNY     40  35  83 S9        30.02S WCI  34
CHEYENNE       SUNNY     47  36  65 W9        30.01R
SCOTTSBLUFF    MOSUNNY   52  47  83 CALM      29.93S
RAPID CITY     SUNNY     53  48  83 CALM      29.86S
BISMARCK       CLOUDY    60  56  86 NE3       29.82R
PIERRE         MOSUNNY   57  54  89 SW9       29.77R
SIOUX FALLS    CLOUDY    63  58  83 S10       29.82S
OMAHA          CLOUDY    66  61  84 NE3       29.89R
GRAND ISLAND   CLOUDY    60  59  96 S12       29.88S
KANSAS CITY    CLOUDY    70  57  63 E8        29.86R
WICHITA        CLOUDY    67  63  87 SE22G29   29.84R
OKLAHOMA CITY  PTSUNNY   76  72  87 S20G30    29.88R
DALLAS         CLOUDY    79  72  79 S14G25    29.96R
AMARILLO       SUNNY     59  38  45 SW9       29.95R
DODGE CITY     MOSUNNY   65  65 100 S13       29.82R FOG
GOODLAND       CLOUDY    56  55  97 E15       29.90S
$$




USA.gov is the U.S. government's official web portal to all federal, state and local government web resources and services.